Location: Waco, TX
(31.5480°N, 97.1670°W)
Time: 01:36:05
(UTC-06:00)

ISS - Pass Details

Date: 28 January 2021
Orbit: 417 x 422 km, 51.6° (Epoch: 09 March)

Event Time Altitude Azimuth Distance (km) Brightness Sun altitude
Rises 22:51:34 0° 310° (NW) 2,370 - -61.6°
Reaches altitude 10° 22:53:42 10° 306° (NW) 1,503 - -62.0°
Maximum altitude 22:56:59 53° 228° (SW) 521 - -62.7°
Drops below altitude 10° 23:00:16 10° 150° (SSE) 1,494 - -63.3°
Sets 23:02:23 0° 146° (SE) 2,353 - -63.7°
